Weather History for PAGK - November, 2013

Change the Weather History Date:

Monday, November 11, 2013

  Actual Average Record
Temperature  
Mean Temperature 28 °F -  
Max Temperature 36 °F 15 °F 45 °F (1979)
Min Temperature 21 °F 0 °F -39 °F (1989)
Degree Days  
Heating Degree Days 36    
Moisture  
Dew Point 22 °F    
Average Humidity 89    
Maximum Humidity 96    
Minimum Humidity 78    
Precipitation  
Precipitation 0.24 in - - ()
Sea Level Pressure  
Sea Level Pressure 29.93 in    
Wind  
Wind Speed 10 mph (NW)    
Max Wind Speed 21 mph    
Max Gust Speed 34 mph    
Visibility 2 miles    
Events Fog , Snow    
Averages and records for this station are not official NWS values.
T = Trace of Precipitation, MM = Missing Value Source: NWS Daily Summary

Daily Weather History Graph

Daily Weather History Graph

Search for Another Location

Airport or City:

Trip Planner

Search our weather history database for the weather conditions in past years. The results will help you decide how hot, cold, wet, or windy it might be!

Date:

Astronomy

Nov. 11, 2013 Rise Set
Actual Time 8:44 AM AKST 4:06 PM AKST
Civil Twilight 7:51 AM AKST 4:59 PM AKST
Nautical Twilight 6:56 AM AKST 5:54 PM AKST
Astronomical Twilight 6:04 AM AKST 6:46 PM AKST
Moon 2:28 PM AKST (11/11) 12:52 AM AKST (11/11)
Length of Visible Light 9h 07m
Length of Day
7h 22m
Waxing Gibbous, 68% of the Moon is Illuminated
Nov 11
Waxing Gibbous
Nov 17
Full
Nov 25
Last Quarter
Dec 2
New
Dec 9
First Quarter

Hourly Weather History & Observations

Time (AKST) Temp. Windchill Dew Point Humidity Pressure Visibility Wind Dir Wind Speed Gust Speed Precip Events Conditions
12:12 AM 28.0 °F 19.3 °F 26.1 °F 92% 29.67 in 0.8 mi West 9.2 mph - 0.03 in Snow Light Snow
12:24 AM 28.0 °F 20.0 °F 26.1 °F 92% 29.68 in 0.5 mi West 8.1 mph - 0.06 in Fog , Snow Snow
12:53 AM 27.0 °F 19.5 °F 26.1 °F 96% 29.78 in 0.5 mi SW 6.9 mph - 0.13 in Fog , Snow Snow
1:53 AM 27.0 °F 23.0 °F 26.1 °F 96% 29.80 in 0.5 mi WSW 3.5 mph - 0.09 in Fog , Snow Snow
3:53 AM 26.1 °F 19.4 °F 25.0 °F 96% 29.83 in 0.8 mi West 5.8 mph - 0.06 in Snow Light Snow
4:12 AM 26.1 °F 19.4 °F 25.0 °F 96% 29.76 in 0.8 mi West 5.8 mph - 0.02 in Snow Light Snow
4:32 AM 26.1 °F 19.4 °F 24.1 °F 92% 29.76 in 1.0 mi West 5.8 mph - 0.04 in Snow Light Snow
4:53 AM 26.1 °F 18.4 °F 24.1 °F 92% 29.85 in 1.0 mi West 6.9 mph - 0.06 in Snow Light Snow
5:53 AM 26.1 °F 19.4 °F 24.1 °F 92% 29.87 in 1.2 mi West 5.8 mph - 0.03 in Snow Light Snow
6:04 AM 26.1 °F 18.4 °F 24.1 °F 92% 29.79 in 1.2 mi West 6.9 mph - 0.01 in Snow Light Snow
6:53 AM 26.1 °F 20.5 °F 25.0 °F 96% 29.88 in 1.2 mi West 4.6 mph - 0.03 in Snow Light Snow
7:05 AM 26.1 °F 17.6 °F 24.1 °F 92% 29.80 in 1.2 mi NW 8.1 mph - 0.01 in Snow Light Snow
7:26 AM 26.1 °F 16.2 °F 24.1 °F 92% 29.82 in 1.2 mi NNW 10.4 mph - 0.02 in Snow Light Snow
7:53 AM 25.0 °F 11.7 °F 23.0 °F 92% 29.92 in 1.0 mi North 17.3 mph - 0.03 in Snow Light Snow
8:05 AM 25.0 °F 12.6 °F 23.0 °F 92% 29.85 in 1.2 mi North 15.0 mph 24.2 mph 0.00 in Snow Light Snow
8:21 AM 25.0 °F 11.3 °F 23.0 °F 92% 29.86 in 1.2 mi North 18.4 mph 23.0 mph 0.01 in Snow Light Snow
8:36 AM 25.0 °F 11.3 °F 23.0 °F 92% 29.86 in 1.5 mi North 18.4 mph 25.3 mph 0.01 in Snow Light Snow
8:53 AM 25.0 °F 10.6 °F 21.9 °F 88% 29.96 in 1.2 mi North 20.7 mph 34.5 mph 0.01 in Snow Light Snow
9:12 AM 25.0 °F 12.6 °F 23.0 °F 92% 29.89 in 0.8 mi North 15.0 mph 25.3 mph 0.01 in Snow Light Snow
9:53 AM 25.0 °F 14.8 °F 23.0 °F 92% 29.99 in 0.5 mi North 10.4 mph - 0.03 in Fog , Snow Snow
10:53 AM 25.0 °F 13.6 °F 23.0 °F 92% 30.01 in 0.5 mi NNW 12.7 mph 20.7 mph 0.03 in Fog , Snow Snow
11:12 AM 26.1 °F 13.6 °F 21.9 °F 84% 29.93 in 0.8 mi North 16.1 mph 21.9 mph 0.01 in Snow Light Snow
11:53 AM 26.1 °F 14.5 °F 21.9 °F 84% 30.03 in 0.8 mi North 13.8 mph 27.6 mph 0.03 in Snow Light Snow
12:09 PM 26.1 °F 14.5 °F 23.0 °F 88% 29.94 in 1.0 mi North 13.8 mph 21.9 mph 0.01 in Snow Light Snow
12:53 PM 25.0 °F 14.8 °F 23.0 °F 92% 30.03 in 1.0 mi NNW 10.4 mph - 0.02 in Snow Light Snow
1:53 PM 25.0 °F 14.2 °F 21.9 °F 88% 30.04 in 1.2 mi NNW 11.5 mph - 0.01 in Snow Light Snow
2:53 PM 25.0 °F 14.2 °F 21.9 °F 88% 30.04 in 1.2 mi NW 11.5 mph - 0.02 in Snow Light Snow
3:53 PM 24.1 °F 13.7 °F 21.0 °F 88% 30.04 in 1.5 mi NNW 10.4 mph - 0.01 in Snow Light Snow
4:11 PM 24.1 °F 12.0 °F 21.0 °F 88% 29.93 in 2.5 mi NNW 13.8 mph 20.7 mph 0.00 in Snow Light Snow
4:18 PM 24.1 °F 10.6 °F 21.0 °F 88% 29.93 in 3.0 mi NNW 17.3 mph 24.2 mph 0.00 in Snow Light Snow
4:32 PM 24.1 °F 13.1 °F 21.0 °F 88% 29.94 in 2.5 mi NNW 11.5 mph 21.9 mph 0.00 in Snow Light Snow
4:53 PM 24.1 °F 11.5 °F 19.9 °F 84% 30.04 in 2.0 mi NNW 15.0 mph 20.7 mph 0.00 in Snow Light Snow
5:14 PM 24.1 °F 12.5 °F 19.9 °F 84% 29.95 in 3.0 mi NNW 12.7 mph 20.7 mph 0.00 in Snow Light Snow
5:53 PM 23.0 °F 10.6 °F 19.9 °F 88% 30.06 in 3.0 mi NNW 13.8 mph - 0.01 in Snow Light Snow
6:16 PM 23.0 °F 12.4 °F 19.9 °F 88% 29.96 in 2.5 mi NNW 10.4 mph - 0.00 in Snow Light Snow
6:24 PM 23.0 °F 11.7 °F 19.9 °F 88% 29.96 in 3.0 mi NNW 11.5 mph - 0.00 in Snow Light Snow
6:41 PM 23.0 °F 11.7 °F 19.0 °F 85% 29.96 in 4.0 mi NNW 11.5 mph - 0.00 in Snow Light Snow
6:53 PM 23.0 °F 10.1 °F 19.0 °F 85% 30.06 in 4.0 mi NNW 15.0 mph 21.9 mph 0.00 in Snow Light Snow
7:53 PM 21.9 °F 9.2 °F 19.0 °F 89% 30.07 in 3.0 mi NW 13.8 mph - 0.00 in Snow Light Snow
8:53 PM 21.9 °F 9.8 °F 18.0 °F 85% 30.07 in 5.0 mi NNW 12.7 mph 18.4 mph 0.00 in Snow Light Snow
9:53 PM 21.9 °F 11.0 °F 17.1 °F 82% 30.08 in 8.0 mi NNW 10.4 mph - 0.00 in Snow Light Snow
10:53 PM 21.0 °F 9.9 °F 16.0 °F 81% 30.09 in 10.0 mi NW 10.4 mph - 0.00 in   Overcast
11:53 PM 21.0 °F 9.9 °F 15.1 °F 78% 30.10 in 10.0 mi NNW 10.4 mph - N/A   Overcast